This demonstration page uses our WeatherBlox Daily Observations layout. Learn more.

Left ArrowRight Arrow

39.92423, -83.80882

Hourly Observations for March 24, 2019

Temp ( °F °C ) Dew Point ( °F °C ) Humidity (%) Winds ( mph kmh ) Pressure ( in mb ) Visibility ( mi km ) Precip ( " mm )
1:56 am 01:56 Clear 30 -1.1 23 -5 75 75 SSE 5 7 30.27 1025 10 16.0934 0 0
2:56 am 02:56 Clear 32 0 24 -4.4 73 73 S 3 6 30.26 1025 10 16.0934 0 0
3:56 am 03:56 Clear 37 2.8 21 -6.1 52 52 S 5 7 30.24 1024 10 16.0934 0 0
4:56 am 04:56 Clear 38 3.3 23 -5 55 55 S 3 6 30.24 1024 10 16.0934 0 0
5:56 am 05:56 Clear 39 3.9 24 -4.4 55 55 S 6 9 30.24 1024 10 16.0934 0 0
6:56 am 06:56 Partly Cloudy 39 3.9 25 -3.9 57 57 SSW 3 6 30.23 1024 10 16.0934 0 0
7:56 am 07:56 Partly Cloudy 39 3.9 26 -3.3 60 60 SE 3 6 30.21 1023 10 16.0934 0 0
8:56 am 08:56 Sunny 41 5 31 -0.6 67 67 SSW 3 6 30.23 1024 10 16.0934 0 0
9:56 am 09:56 Mostly Cloudy 46 7.8 27 -2.8 47 47 SSE 5 7 30.22 1023 10 16.0934 0 0
10:56 am 10:56 Cloudy 49 9.4 26 -3.3 41 41 S 7 11 30.22 1023 10 16.0934 0 0
11:56 am 11:56 Cloudy 54 12.2 25 -3.9 33 33 SSW 13 20 30.2 1023 10 16.0934 0 0
12:56 pm 12:56 Partly Cloudy 55 12.8 25 -3.9 31 31 WSW 9 15 30.17 1022 10 16.0934 0 0
1:56 pm 13:56 Mostly Cloudy 57 13.9 25 -3.9 29 29 SW 9 15 30.15 1021 10 16.0934 0 0
2:56 pm 14:56 Cloudy 57 13.9 24 -4.4 28 28 WSW 9 15 30.13 1020 10 16.0934 0 0
3:56 pm 15:56 Cloudy 57 13.9 25 -3.9 29 29 WSW 9 15 30.12 1020 10 16.0934 0 0
4:56 pm 16:56 Cloudy 55 12.8 33 0.6 44 44 SSW 10 17 30.13 1020 10 16.0934 0 0
5:56 pm 17:56 Cloudy with Light Rain 53 11.7 35 1.7 51 51 SSW 6 9 30.12 1020 10 16.0934 0 0.0254
6:56 pm 18:56 Cloudy with Light Rain 50 10 39 3.9 66 66 S 6 9 30.1 1019 10 16.0934 0.01 0.254
7:56 pm 19:56 Cloudy with Light Rain 49 9.4 41 5 74 74 SSE 6 9 30.09 1019 10 16.0934 0 0.0254
8:56 pm 20:56 Cloudy with Light Rain 47 8.3 43 6.1 86 86 SSE 8 13 30.08 1019 10 16.0934 0 0.0254
9:23 pm 21:23 Cloudy with Light Rain 46 8 45 7 93 93 SSE 7 11 30.08 1019 8 12.87472 0 0.0254
9:35 pm 21:35 Cloudy with Light Rain 46 8 45 7 93 93 SSE 7 11 30.08 1019 8 12.87472 0 0.0254
9:56 pm 21:56 Cloudy 46 7.8 45 7.2 96 96 SSE 3 6 30.08 1019 10 16.0934 0 0.0254
10:56 pm 22:56 Cloudy 45 7.2 45 7.2 100 100 NE 5 7 30.07 1018 8 12.87472 0 0
11:56 pm 23:56 Cloudy 46 7.8 46 7.8 100 100 NNE 6 9 30.07 1018 9 14.48406 0 0

Powered by AerisWeather